Weather in Tablas

Philippines     12°20′36″N   122°01′09″E
temp.,
°C
wind,
m/s
gust,
m/s
humid.,
%
clouds,
%
prec.,
mm/h
press.,
hPa
HPBL,
m
26 february, fri
fri2623:00+25nne128080 0.0 100965
02:00+24nne248490 0.0 1007125
05:00+24n3587100 0.1 1007271
08:00+26nne3679100 0.1 1009500
11:00+29ene3367100 0.0 1009827
14:00+29e436867 0.0 1007748
17:00+28ene337540 0.0 1007344
20:00+26ne238125 0.0 1008117
27 february, sat
sat2723:00+25nne348115 0.0 1010134
02:00+25nne358714 0.0 1009292
05:00+25nne34890 0.0 1008207
08:00+27ne35800 0.1 1010562
11:00+28nne35800 0.7 1010772
14:00+29ne34770 1.8 1008804
17:00+28nne36750 0.2 1007674
20:00+26nne37860 0.4 1010301
28 february, sun
sun2823:00+26nne37875 1.1 1010333
02:00+26nne588433 1.3 1009455
05:00+25nne378784 0.5 1009366
08:00+27nne477892 1.3 1012638
11:00+28ne568067 1.3 1012762
14:00+29ne467567 1.9 1010715
17:00+29nne476974 0.0 1009485
20:00+26nne488281 0.0 1011379
1 march, mon
mon123:00+26ne598447 0.0 1011589
02:00+25ne498273 0.0 1010456
05:00+25ne598362 0.0 1010490
08:00+27nne588035 0.0 1013645
11:00+26e5687100 2.3 1013689
14:00+25ese2485100 10.6 1011450
17:00+25nw1186100 4.1 101166
20:00+25nne238779 4.3 1012122
2 march, tue
tue223:00+25nne4686100 0.0 1013254
02:00+24nne2388100 0.0 1011156
05:00+24ne2389100 0.0 1011220
08:00+26ene348397 0.0 1013469
11:00+28ene457024 0.0 1014760
14:00+28ene566742 0.0 1011854
17:00+27ne467116 0.0 1011599
20:00+25nne47808 0.0 1012209